Location: Houston
(29.7631°N, 95.3631°W)
Time: 01:12:16
(UTC-05:00)

Envisat - Visible Passes

Search period start: 23 October 2019 00:00
Search period end: 02 November 2019 00:00
Orbit: 764 x 766 km, 98.1° (Epoch: 22 October)

Date Brightness Start Highest point End Pass type
(mag) Time Alt. Az. Time Alt. Az. Time Alt. Az.
23 Oct 5.6 20:37:17 10° SW 20:40:54 20° W 20:44:33 10° NW visible
24 Oct 4.0 19:59:07 10° S 20:04:00 49° W 20:08:55 10° NNW visible
25 Oct 2.9 19:22:15 10° SSE 19:27:16 66° ENE 19:32:18 10° N visible
26 Oct 5.2 20:25:25 10° SSW 20:29:35 26° W 20:33:46 10° NW visible
27 Oct 6.3 07:02:29 10° ENE 07:05:18 15° E 07:08:06 10° SE visible
27 Oct 3.4 19:47:42 10° S 19:52:44 65° W 19:57:46 10° NNW visible
28 Oct 3.2 19:11:10 10° SSE 19:16:03 50° ENE 19:20:56 10° N visible
28 Oct 6.1 20:52:51 10° WSW 20:55:14 13° W 20:57:39 10° WNW visible
29 Oct 4.7 20:13:43 10° SSW 20:18:16 34° W 20:22:51 10° NNW visible
30 Oct 6.7 06:52:38 10° ENE 06:53:56 11° E 06:55:14 10° ESE visible
30 Oct 3.0 19:36:24 10° SSE 19:41:28 85° WSW 19:46:34 10° NNW visible
31 Oct 3.5 19:00:10 10° SE 19:04:50 38° ENE 19:09:30 10° N visible
31 Oct 5.7 20:40:32 10° SW 20:43:53 18° W 20:47:16 10° NW visible
01 Nov 4.2 20:02:09 10° S 20:06:59 44° W 20:11:49 10° NNW visible
